Tracking 29033 objects as of 22-Jun-2024
HD Live streaming from Space Station
objects crossing your sky now

STARLINK-5274

Track STARLINK-5274 now!
10-day predictions
STARLINK-5274 is classified as:


NORAD ID: 55395
Int'l Code: 2023-014E
Perigee: 577.0 km
Apogee: 581.4 km
Inclination: 70.0 °
Period: 96.1 minutes
Semi major axis: 6950 km
RCS: Unknown
Launch date: January 31, 2023
Source: United States (US)
Launch site: AIR FORCE WESTERN TEST RANGE (AFWTR)
Your satellite tracking list
Your tracking list is empty




NASA's NSSDC Master Catalog

Two Line Element Set (TLE):
1 55395U 23014E   24173.51736794  .00000251  00000-0  28807-4 0  9993
2 55395  69.9985 203.1344 0003198 270.7629  89.3164 14.98331826 78265
Source of the keplerian elements: AFSPC